Temp
-12 -12 -12 -12 -12 -11 -11 -10 -10 -10 -9 -9 -9 -8 -8 -7 -7 -7 -6 -6 -6 -5 -5 -5 -5 -5 -5 -5 -5 -6 -5 -5 -5 -5 -5 -5 -5 -6 -6 -6 -6 -6 -6 -6 -6
-12 -13 -12 -13 -12 -12 -11 -11 -11 -10 -10 -9 -9 -9 -8 -8 -7 -7 -6 -7 -6 -6 -6 -6 -5 -5 -5 -5 -5 -5 -6 -5 -5 -5 -5 -5 -6 -6 -6 -6 -6 -6 -6 -6 -6
-13 -13 -13 -13 -13 -12 -12 -12 -11 -11 -11 -10 -10 -10 -9 -9 -8 -7 -7 -7 -7 -7 -6 -6 -6 -5 -5 -5 -5 -5 -5 -6 -5 -5 -5 -5 -5 -6 -6 -6 -6 -6 -6 -6 -6
-13 -13 -13 -13 -13 -13 -12 -12 -12 -12 -11 -11 -10 -10 -10 -9 -9 -8 -8 -8 -7 -7 -7 -7 -6 -6 -6 -5 -5 -6 -6 -6 -6 -5 -5 -5 -5 -6 -6 -5 -6 -6 -6 -6 -6
-14 -14 -14 -14 -14 -14 -13 -13 -12 -13 -12 -12 -11 -10 -10 -10 -9 -9 -8 -8 -8 -7 -7 -7 -7 -6 -6 -6 -6 -5 -6 -6 -6 -6 -6 -5 -5 -5 -6 -5 -5 -6 -6 -6 -6
-14 -14 -14 -14 -14 -14 -14 -13 -13 -13 -13 -12 -12 -11 -11 -10 -9 -9 -9 -9 -9 -8 -8 -8 -7 -7 -6 -6 -6 -6 -6 -6 -6 -6 -6 -5 -5 -5 -6 -5 -6 -5 -5 -6 -6
-15 -15 -15 -14 -15 -14 -14 -14 -13 -13 -13 -13 -12 -12 -11 -12 -10 -9 -9 -9 -9 -9 -8 -8 -8 -7 -7 -7 -6 -6 -6 -6 -6 -6 -6 -6 -6 -6 -6 -6 -6 -6 -6 -6 -6
-16 -16 -15 -15 -15 -15 -14 -14 -14 -13 -13 -13 -12 -12 -12 -12 -11 -11 -10 -9 -10 -9 -9 -8 -8 -8 -8 -7 -7 -7 -7 -7 -6 -6 -6 -6 -6 -6 -6 -6 -6 -6 -6 -6 -6
-17 -17 -16 -16 -15 -15 -15 -14 -14 -14 -13 -13 -12 -12 -12 -12 -12 -11 -11 -10 -10 -10 -9 -9 -9 -8 -8 -8 -8 -7 -7 -7 -7 -7 -6 -6 -6 -6 -6 -6 -6 -6 -6 -6 -6
-18 -17 -17 -16 -16 -16 -16 -15 -14 -14 -14 -13 -13 -12 -12 -12 -12 -12 -12 -11 -11 -10 -9 -9 -9 -9 -9 -9 -9 -8 -8 -8 -7 -7 -7 -6 -7 -7 -6 -6 -6 -6 -7 -7 -7
-18 -18 -17 -17 -16 -16 -16 -15 -15 -14 -14 -13 -13 -13 -13 -13 -13 -12 -12 -12 -11 -11 -10 -10 -9 -9 -10 -10 -10 -9 -8 -8 -8 -7 -7 -7 -7 -7 -7 -7 -7 -7 -7 -7 -7
-18 -18 -17 -17 -17 -16 -16 -16 -14 -14 -14 -15 -14 -14 -14 -14 -14 -13 -13 -12 -11 -11 -11 -10 -10 -11 -10 -10 -10 -9 -9 -9 -9 -9 -8 -8 -7 -7 -8 -8 -8 -7 -7 -7 -7
-18 -18 -18 -17 -17 -17 -17 -15 -15 -15 -15 -14 -14 -14 -14 -15 -14 -14 -13 -12 -12 -12 -11 -11 -11 -11 -11 -11 -10 -10 -10 -10 -9 -9 -9 -8 -7 -8 -8 -8 -9 -9 -8 -8 -8
-18 -18 -18 -17 -17 -17 -17 -16 -16 -15 -16 -14 -14 -14 -14 -14 -14 -14 -13 -13 -12 -12 -12 -11 -11 -11 -11 -11 -11 -10 -11 -10 -10 -9 -9 -8 -7 -8 -9 -9 -9 -9 -9 -9 -9
-18 -18 -18 -18 -17 -17 -17 -17 -16 -15 -15 -14 -14 -15 -15 -14 -14 -14 -14 -14 -13 -13 -13 -11 -12 -12 -11 -12 -12 -11 -11 -11 -10 -10 -9 -9 -8 -7 -9 -10 -9 -9 -9 -9 -9
-19 -18 -18 -17 -17 -17 -17 -17 -17 -16 -16 -15 -14 -14 -14 -14 -14 -14 -15 -14 -14 -13 -13 -12 -12 -12 -12 -13 -12 -12 -11 -11 -11 -10 -9 -10 -10 -8 -9 -9 -10 -10 -9 -9 -9
-21 -18 -18 -17 -18 -18 -18 -18 -17 -16 -16 -15 -14 -14 -14 -14 -14 -14 -14 -14 -13 -12 -12 -12 -12 -12 -12 -12 -12 -12 -12 -12 -11 -11 -10 -10 -10 -9 -10 -11 -11 -10 -10 -10 -10
-23 -21 -18 -17 -18 -18 -20 -19 -17 -16 -16 -14 -14 -15 -15 -15 -15 -15 -14 -14 -13 -13 -14 -13 -13 -13 -13 -13 -13 -13 -13 -13 -12 -11 -11 -10 -10 -10 -10 -11 -11 -11 -11 -10 -10
-23 -23 -20 -18 -18 -19 -19 -18 -17 -17 -16 -15 -15 -15 -15 -15 -15 -15 -14 -13 -13 -13 -13 -13 -13 -13 -13 -14 -14 -13 -12 -13 -13 -13 -11 -10 -9 -10 -12 -12 -12 -11 -11 -11 -11
-25 -23 -23 -21 -20 -20 -19 -18 -17 -17 -16 -15 -15 -15 -15 -15 -15 -14 -14 -13 -13 -13 -15 -14 -15 -14 -14 -14 -14 -13 -13 -14 -13 -12 -11 -10 -11 -11 -12 -13 -12 -12 -12 -12 -12
-28 -26 -26 -24 -23 -21 -20 -18 -17 -17 -17 -16 -16 -15 -15 -15 -15 -15 -14 -14 -14 -14 -15 -14 -14 -14 -14 -13 -13 -13 -13 -13 -13 -13 -12 -12 -11 -11 -12 -13 -13 -13 -13 -13 -13
-29 -28 -28 -26 -24 -22 -19 -18 -17 -18 -17 -17 -16 -15 -15 -15 -15 -15 -15 -15 -15 -15 -15 -14 -15 -14 -14 -14 -14 -14 -13 -14 -13 -12 -12 -12 -11 -12 -14 -14 -14 -13 -14 -14 -14
-29 -29 -28 -27 -25 -21 -20 -19 -18 -18 -18 -17 -16 -16 -15 -15 -15 -15 -16 -16 -16 -16 -15 -14 -14 -15 -14 -13 -13 -13 -13 -13 -13 -13 -12 -12 -12 -12 -15 -15 -15 -14 -14 -15 -15
-29 -28 -28 -27 -26 -22 -20 -18 -19 -18 -18 -17 -16 -16 -16 -16 -16 -15 -16 -16 -16 -16 -15 -15 -15 -14 -14 -14 -14 -14 -14 -14 -14 -13 -13 -11 -12 -13 -15 -15 -15 -15 -15 -15 -16
-29 -29 -28 -27 -26 -23 -21 -18 -19 -18 -17 -17 -16 -16 -16 -15 -15 -15 -15 -16 -16 -16 -16 -15 -15 -15 -15 -14 -14 -14 -13 -13 -13 -13 -13 -13 -13 -14 -15 -16 -16 -16 -15 -16 -16
-28 -29 -28 -28 -27 -25 -22 -19 -19 -19 -18 -18 -16 -16 -16 -15 -15 -14 -15 -15 -15 -16 -16 -15 -15 -15 -15 -14 -14 -14 -14 -13 -13 -13 -13 -13 -13 -15 -16 -15 -15 -15 -15 -16 -16
-29 -28 -28 -28 -27 -26 -22 -20 -19 -19 -18 -17 -16 -16 -15 -16 -16 -16 -15 -16 -16 -16 -16 -16 -15 -15 -15 -15 -15 -13 -14 -14 -15 -14 -14 -13 -15 -15 -15 -15 -15 -15 -16 -16 -17
Height
5785 5788 5791 5793 5796 5798 5802 5806 5811 5814 5816 5820 5824 5827 5831 5835 5839 5842 5845 5851 5853 5856 5858 5861 5862 5864 5865 5866 5867 5869 5870 5869 5869 5869 5870 5871 5871 5871 5872 5872 5872 5873 5873 5873 5873
5773 5776 5779 5784 5786 5789 5792 5797 5801 5806 5809 5812 5816 5819 5823 5827 5830 5834 5840 5844 5847 5850 5852 5855 5858 5859 5861 5863 5864 5865 5866 5866 5867 5867 5868 5869 5870 5870 5871 5871 5871 5871 5871 5871 5870
5761 5763 5767 5771 5775 5779 5783 5787 5791 5796 5800 5804 5809 5812 5815 5819 5823 5825 5831 5836 5839 5843 5845 5849 5852 5854 5856 5858 5860 5861 5862 5863 5864 5865 5865 5866 5867 5868 5868 5868 5869 5869 5868 5867 5867
5748 5751 5754 5759 5763 5768 5773 5777 5781 5786 5790 5795 5800 5803 5808 5811 5816 5817 5823 5827 5831 5836 5838 5841 5845 5848 5850 5853 5855 5857 5857 5859 5860 5861 5862 5863 5864 5865 5865 5865 5865 5865 5865 5865 5865
5733 5737 5740 5745 5750 5756 5761 5766 5770 5775 5780 5785 5790 5794 5799 5805 5807 5809 5815 5819 5824 5828 5831 5834 5838 5841 5843 5846 5849 5851 5853 5854 5856 5857 5858 5859 5860 5861 5860 5860 5861 5861 5861 5861 5860
5717 5722 5726 5731 5737 5743 5749 5753 5758 5764 5769 5774 5780 5784 5790 5797 5796 5801 5807 5810 5816 5819 5823 5827 5830 5833 5836 5839 5842 5845 5847 5849 5850 5851 5853 5854 5855 5857 5853 5857 5857 5857 5857 5857 5856
5699 5705 5712 5718 5723 5729 5737 5742 5747 5752 5759 5764 5770 5774 5780 5787 5788 5792 5799 5803 5807 5812 5814 5818 5823 5825 5829 5831 5834 5838 5841 5843 5844 5845 5847 5848 5851 5849 5850 5851 5852 5852 5852 5852 5852
5681 5687 5695 5703 5709 5717 5724 5728 5735 5740 5747 5752 5759 5764 5773 5774 5781 5783 5788 5793 5798 5803 5806 5809 5814 5817 5821 5825 5828 5831 5834 5837 5837 5838 5841 5842 5845 5842 5843 5845 5846 5847 5847 5847 5847
5664 5670 5678 5687 5695 5703 5712 5718 5725 5729 5734 5740 5748 5753 5763 5766 5772 5772 5780 5785 5788 5793 5797 5799 5804 5809 5812 5817 5821 5823 5827 5829 5830 5831 5834 5835 5839 5834 5837 5839 5840 5840 5841 5841 5841
5646 5653 5661 5670 5680 5689 5699 5705 5713 5714 5721 5728 5735 5743 5752 5758 5761 5765 5770 5775 5779 5783 5787 5790 5795 5801 5804 5809 5816 5816 5816 5818 5822 5824 5825 5828 5832 5829 5830 5832 5833 5834 5832 5833 5834
5627 5636 5644 5654 5665 5675 5687 5692 5697 5703 5711 5722 5728 5735 5744 5749 5752 5755 5761 5766 5770 5773 5778 5783 5785 5792 5802 5800 5801 5804 5808 5810 5811 5813 5815 5818 5823 5824 5822 5825 5826 5825 5825 5826 5825
5608 5617 5626 5637 5649 5661 5671 5680 5691 5699 5702 5706 5711 5720 5728 5734 5740 5744 5750 5756 5761 5766 5770 5774 5777 5789 5787 5788 5792 5795 5799 5805 5805 5803 5803 5809 5812 5817 5817 5817 5817 5818 5818 5817 5816
5590 5600 5610 5622 5635 5649 5658 5669 5673 5684 5686 5691 5699 5708 5716 5724 5730 5735 5740 5745 5751 5755 5760 5765 5775 5775 5776 5779 5783 5787 5789 5795 5795 5794 5792 5795 5800 5807 5811 5809 5808 5809 5808 5808 5807
5575 5585 5596 5606 5624 5634 5649 5659 5667 5675 5670 5676 5684 5697 5703 5710 5718 5725 5729 5736 5740 5748 5752 5755 5760 5766 5768 5770 5775 5777 5783 5783 5784 5785 5787 5788 5786 5797 5802 5800 5799 5797 5798 5798 5798
5559 5569 5581 5593 5609 5624 5638 5646 5653 5655 5649 5665 5676 5685 5692 5702 5717 5717 5722 5726 5733 5739 5745 5750 5756 5760 5761 5767 5768 5770 5772 5773 5776 5777 5777 5780 5779 5782 5791 5791 5788 5787 5788 5788 5786
5542 5552 5563 5580 5597 5612 5621 5627 5635 5636 5629 5644 5659 5671 5683 5692 5699 5704 5709 5716 5723 5728 5734 5737 5744 5746 5752 5756 5758 5760 5763 5765 5767 5768 5767 5771 5772 5772 5778 5778 5780 5778 5777 5776 5776
5526 5534 5550 5565 5583 5591 5602 5609 5612 5608 5623 5634 5648 5663 5677 5684 5686 5695 5700 5705 5712 5719 5727 5731 5736 5741 5744 5746 5749 5753 5757 5758 5757 5756 5759 5760 5761 5762 5767 5767 5768 5767 5767 5767 5767
5509 5518 5531 5549 5561 5572 5585 5589 5589 5600 5613 5631 5642 5653 5661 5669 5675 5686 5691 5696 5703 5711 5714 5719 5725 5732 5739 5742 5746 5746 5747 5747 5745 5749 5749 5749 5750 5754 5758 5759 5757 5757 5758 5759 5759
5495 5502 5515 5529 5539 5549 5561 5561 5576 5593 5608 5621 5630 5639 5649 5658 5667 5673 5683 5690 5696 5704 5709 5713 5717 5724 5727 5731 5734 5735 5736 5742 5739 5738 5737 5740 5743 5747 5751 5749 5748 5748 5748 5749 5750
5480 5487 5500 5507 5516 5525 5536 5545 5568 5591 5600 5610 5621 5629 5641 5651 5657 5664 5672 5682 5686 5692 5698 5703 5708 5713 5717 5721 5724 5723 5728 5730 5729 5729 5729 5731 5733 5736 5741 5739 5739 5739 5739 5738 5738
5469 5474 5488 5488 5496 5503 5515 5539 5561 5578 5587 5600 5610 5620 5632 5642 5652 5660 5669 5674 5680 5685 5690 5694 5701 5704 5708 5711 5715 5719 5718 5721 5723 5723 5722 5724 5724 5724 5730 5732 5730 5729 5729 5728 5729
5461 5465 5473 5477 5482 5496 5516 5538 5554 5566 5578 5587 5600 5611 5623 5636 5643 5651 5660 5668 5673 5679 5683 5689 5692 5694 5698 5701 5704 5706 5708 5710 5713 5715 5716 5714 5716 5716 5720 5721 5721 5720 5719 5720 5721
5453 5459 5465 5469 5472 5487 5508 5524 5537 5551 5564 5578 5594 5604 5614 5625 5633 5643 5650 5658 5663 5669 5672 5675 5678 5683 5687 5691 5694 5698 5704 5705 5705 5705 5705 5705 5709 5708 5712 5711 5712 5712 5711 5710 5711
5447 5451 5457 5460 5467 5478 5494 5510 5525 5545 5557 5567 5582 5593 5605 5614 5626 5634 5641 5648 5653 5660 5664 5668 5671 5677 5682 5686 5690 5691 5693 5694 5694 5694 5696 5699 5700 5702 5703 5702 5702 5701 5701 5702 5703
5438 5441 5445 5453 5459 5468 5482 5499 5515 5529 5547 5557 5569 5582 5596 5607 5617 5626 5632 5638 5645 5650 5655 5660 5665 5671 5676 5678 5682 5683 5684 5685 5685 5688 5686 5693 5691 5692 5694 5692 5692 5694 5694 5696 5697
5430 5434 5437 5443 5445 5452 5464 5481 5495 5517 5530 5548 5565 5582 5592 5600 5615 5623 5628 5631 5637 5644 5650 5655 5659 5664 5668 5671 5672 5673 5674 5674 5678 5679 5679 5680 5684 5683 5683 5683 5685 5686 5687 5688 5689
5422 5426 5429 5435 5437 5440 5453 5477 5497 5513 5527 5547 5560 5571 5581 5596 5607 5614 5617 5624 5632 5638 5643 5647 5652 5657 5661 5662 5663 5663 5670 5670 5670 5670 5672 5671 5676 5672 5675 5676 5676 5676 5678 5680 5681
Wind_Speed
52 53 49 48 49 50 52 49 48 47 45 44 47 45 44 43 41 39 37 31 30 29 27 25 22 21 19 18 16 15 14 14 13 12 11 9 7 5 4 4 4 5 6 7 9
55 55 56 52 51 50 50 51 52 49 46 45 47 45 45 45 43 43 40 36 33 31 30 30 28 24 24 21 20 18 17 17 16 14 13 12 11 10 9 9 8 9 9 10 11
57 58 58 56 56 54 52 50 49 51 49 46 47 46 43 45 45 45 40 40 39 35 32 33 32 30 27 26 24 22 22 21 19 17 16 15 14 13 13 14 12 13 13 13 13
57 60 60 59 56 57 56 52 49 49 47 49 49 48 46 42 45 45 41 40 42 40 37 34 34 34 31 29 28 27 25 24 23 22 21 19 17 16 15 18 16 14 16 16 16
60 59 62 61 59 56 56 56 53 49 48 47 49 51 49 45 42 46 44 40 39 41 41 38 36 36 36 34 33 32 30 28 26 24 23 22 21 18 20 22 18 19 18 18 18
64 61 62 62 61 57 57 58 55 54 51 48 48 47 48 46 48 43 47 43 40 39 40 41 41 39 39 38 37 34 34 32 30 27 26 25 23 20 26 23 20 23 21 21 21
67 63 62 62 62 59 50 55 58 55 55 50 48 48 45 43 49 44 45 47 43 41 40 40 44 43 41 41 40 38 36 33 33 32 30 29 25 27 27 24 25 24 24 24 25
63 67 63 62 62 61 62 45 51 54 54 55 51 49 44 47 45 44 46 46 48 46 43 43 43 45 44 43 40 39 39 37 36 36 34 33 27 31 29 28 27 27 27 27 27
61 65 63 62 61 61 59 58 50 49 54 55 54 51 45 46 45 46 44 45 46 52 48 45 46 44 45 44 43 41 39 40 41 40 39 37 31 34 32 30 30 30 31 30 30
64 62 63 61 60 60 56 55 49 45 52 57 56 52 49 44 45 45 44 46 44 47 51 51 48 47 45 43 41 42 44 44 42 43 43 41 36 38 36 35 34 35 35 34 32
62 64 63 62 61 60 55 57 62 48 47 48 52 49 43 42 44 45 45 46 46 46 46 50 49 49 40 42 45 47 48 48 44 46 47 46 43 40 42 39 37 39 40 39 39
60 65 64 63 62 59 58 56 55 59 50 50 47 48 48 46 46 47 46 47 47 44 43 46 50 38 45 45 46 47 49 46 44 46 51 49 49 44 44 43 42 41 42 43 47
59 64 65 64 62 60 59 63 49 59 48 48 51 46 47 48 48 48 47 47 47 47 45 43 36 41 46 45 44 45 46 45 47 49 51 53 50 44 41 45 47 44 44 44 47
58 63 66 65 62 61 58 60 55 54 59 62 48 48 51 50 50 49 49 48 48 46 45 47 45 41 43 46 45 48 43 45 46 49 50 52 56 47 41 41 46 49 48 47 49
59 63 66 66 64 61 57 57 63 48 60 64 59 50 46 47 45 49 48 48 46 44 44 46 42 39 41 37 38 41 42 45 46 50 51 50 52 49 38 36 42 46 46 47 48
60 64 68 67 64 61 62 59 65 69 65 61 58 59 53 49 48 50 51 50 49 48 47 48 45 44 42 38 41 43 42 42 43 45 48 45 44 47 38 40 37 40 43 44 46
54 67 68 69 65 67 68 65 66 80 68 55 57 52 47 46 49 48 49 51 51 49 47 46 45 44 44 44 43 41 39 40 44 45 45 43 43 43 36 34 30 33 38 40 42
49 63 70 72 71 72 73 73 73 85 63 65 53 48 46 49 48 44 46 49 48 47 48 46 46 41 39 37 35 36 38 41 45 42 45 44 44 43 36 33 36 34 33 34 36
45 55 69 75 75 77 78 65 82 74 63 61 58 55 53 49 45 43 41 42 44 43 43 42 42 37 37 35 37 40 42 39 42 44 46 46 43 40 33 35 37 36 36 32 31
40 49 57 68 76 81 87 82 79 73 61 72 59 56 52 47 47 41 40 37 40 43 43 41 40 37 37 38 41 45 44 41 44 46 46 45 43 40 34 35 36 36 35 33 31
35 43 38 54 70 82 90 84 76 73 65 62 55 54 54 50 42 41 35 31 34 36 40 39 38 39 41 41 40 41 43 43 44 44 45 44 47 45 38 33 35 35 33 33 31
35 31 32 36 59 80 86 80 82 74 72 65 51 54 51 47 45 38 33 30 28 29 32 33 36 38 37 39 40 42 44 44 42 42 41 45 43 44 32 29 29 32 33 33 32
31 29 25 28 52 77 88 83 80 84 82 77 66 53 50 49 46 40 37 32 31 30 35 38 40 41 40 40 40 37 32 35 38 41 41 43 42 41 31 32 30 31 35 36 34
28 28 28 26 40 66 86 93 80 77 80 73 73 63 50 50 45 41 39 38 33 34 38 38 40 39 35 33 31 30 30 31 35 39 39 37 36 37 30 32 32 34 37 36 36
27 30 31 27 32 58 85 95 68 77 77 66 73 59 58 50 46 42 40 40 38 37 38 39 39 36 34 33 29 33 37 37 39 38 39 33 34 33 28 32 36 35 35 33 36
32 32 34 37 31 53 80 102 89 75 77 77 75 59 48 51 47 41 39 40 39 35 31 30 33 33 30 30 33 36 35 36 32 32 35 36 33 26 28 34 31 27 31 32 29
33 33 32 30 33 44 72 96 76 84 81 75 76 62 50 49 44 42 41 38 38 33 33 32 27 27 28 28 31 35 25 24 26 28 27 31 21 28 26 26 29 34 32 29 30
Wind_Direction
251 247 245 243 245 244 243 244 243 240 236 233 235 235 234 234 235 233 231 225 223 225 226 228 226 225 223 220 218 209 207 203 193 186 181 181 182 194 213 227 254 284 294 282 284
248 247 244 240 242 243 242 241 242 243 237 234 235 235 235 233 234 236 234 230 226 223 226 229 228 226 228 224 221 215 214 215 212 206 200 199 200 207 218 236 245 257 260 276 285
249 247 244 241 240 241 242 241 240 241 240 235 237 235 236 235 232 235 234 232 228 226 225 228 230 227 230 230 226 221 219 217 220 221 220 217 217 221 223 231 234 246 256 261 263
251 247 246 242 239 239 241 240 239 240 239 236 236 236 236 234 234 234 234 232 230 228 227 227 230 230 227 232 230 230 227 224 221 222 227 229 231 235 242 242 241 247 255 262 266
249 247 245 244 240 237 240 240 238 239 239 237 235 234 235 235 237 232 234 235 232 229 229 228 230 231 230 229 232 231 229 231 230 229 230 233 235 240 251 242 248 251 253 261 269
247 246 244 243 241 237 236 240 239 238 238 236 235 236 235 235 235 232 235 234 234 229 230 229 230 230 231 231 233 234 235 232 234 234 233 235 239 237 247 248 254 250 255 258 264
245 244 243 241 240 236 237 237 238 237 237 238 236 236 235 237 235 233 237 236 237 235 228 232 232 231 234 233 233 235 239 238 239 240 237 238 241 244 250 250 254 256 254 259 263
249 245 239 239 239 237 228 234 235 236 237 237 236 235 234 235 235 236 235 235 236 238 234 231 232 232 233 237 237 237 239 242 242 242 240 238 237 245 249 253 255 258 259 260 264
245 244 238 235 236 235 232 233 235 236 237 236 236 235 234 234 235 235 234 236 233 237 236 234 235 234 232 235 238 240 242 243 243 245 245 241 237 247 248 252 257 259 260 260 260
240 241 237 232 230 233 230 232 226 228 234 234 234 234 231 234 235 235 233 235 234 234 235 235 237 237 235 237 241 239 240 240 245 245 247 247 243 247 250 252 256 260 262 263 263
239 235 233 229 228 227 226 228 224 225 230 238 237 237 236 235 236 236 233 232 234 235 236 236 235 238 240 238 237 242 242 239 241 246 248 248 246 250 256 255 254 256 261 266 268
237 229 228 225 224 224 222 217 230 228 243 232 235 232 230 228 230 233 232 233 234 236 237 236 237 236 238 239 241 241 244 247 248 250 253 253 252 252 255 261 259 259 262 261 267
237 228 225 222 221 220 221 217 228 220 236 225 229 230 229 226 229 232 233 233 232 233 235 238 236 234 236 238 241 243 245 246 249 251 253 255 255 253 257 264 265 263 261 263 266
235 226 223 220 218 218 219 221 226 236 237 230 228 229 229 225 225 229 232 232 233 234 235 237 235 232 235 238 241 244 247 248 249 252 256 261 263 261 258 262 263 264 264 267 269
231 227 222 219 215 215 217 218 213 228 239 237 225 226 227 229 232 232 235 237 237 237 237 242 240 238 241 244 244 247 248 251 253 255 256 259 263 267 260 260 260 264 266 265 266
230 227 221 219 214 210 212 214 213 222 235 231 229 229 229 229 229 225 229 233 235 235 236 238 234 236 238 237 241 245 247 252 256 259 261 262 266 263 274 265 260 260 262 262 265
232 226 219 215 213 209 208 212 217 226 229 227 231 227 228 230 231 228 231 234 234 236 238 242 244 242 242 241 243 247 253 257 258 259 265 266 263 265 268 276 272 261 260 260 262
236 225 217 213 211 210 203 208 221 216 222 222 229 224 223 224 225 227 231 232 233 233 235 237 239 241 245 247 247 247 248 250 256 260 260 261 264 271 272 270 270 270 265 262 261
236 226 220 212 209 209 204 205 216 218 225 222 223 225 224 221 221 228 229 230 233 236 241 241 241 237 240 234 238 242 244 249 255 257 261 265 268 271 272 271 268 268 268 268 263
233 225 220 215 211 208 204 210 208 208 216 219 225 229 223 224 223 220 221 227 229 228 231 235 237 235 235 237 237 243 244 247 250 257 264 269 272 275 274 271 270 269 268 267 263
234 224 218 222 214 207 205 209 207 209 217 213 220 224 223 223 224 225 229 233 229 229 232 236 235 237 236 237 241 243 249 249 255 259 265 270 273 272 272 270 269 268 264 259 257
234 241 220 225 217 208 202 200 207 207 211 217 216 220 222 220 221 222 220 225 224 228 232 237 240 240 238 239 240 241 243 246 251 260 263 265 266 275 282 275 266 262 257 254 252
230 237 239 222 222 210 202 200 204 210 216 218 213 220 215 218 223 218 219 217 219 222 223 223 226 229 234 236 235 244 254 257 258 258 257 262 269 275 275 269 262 256 251 248 248
230 235 224 220 221 212 203 202 200 204 210 215 218 220 219 219 216 218 215 216 221 219 222 225 229 234 240 247 247 247 245 247 249 253 258 265 267 270 264 262 257 250 248 248 250
234 236 221 216 234 212 204 199 193 201 208 207 210 215 219 211 216 214 212 218 221 219 222 228 234 239 242 248 246 247 247 252 256 260 265 271 268 267 264 250 253 253 256 260 265
226 236 228 215 216 213 206 203 204 206 206 213 215 216 216 215 213 215 216 218 220 222 226 232 237 239 241 239 238 241 248 251 261 265 268 270 269 268 257 252 256 257 256 256 259
242 226 229 210 226 210 205 200 198 206 210 214 210 212 208 209 213 217 225 219 222 218 222 229 235 232 233 232 235 241 250 254 255 259 264 263 262 251 255 255 251 250 252 259 260